RH
12 12 12 9 8 9 10 9 8 8 8 8 10 9 15 16 16 19 19 23 32 34 30 36 42 44 55 54 58 62 66 69 71 78 84 81 81 79 75 74 76 76 86 80
11 12 9 8 8 9 7 8 8 7 7 8 10 10 14 15 17 19 20 22 23 26 28 35 38 38 46 51 58 64 67 73 76 79 83 82 77 75 74 70 72 76 76 80
11 8 7 8 9 8 7 8 7 8 8 8 9 22 35 45 36 21 23 23 27 30 32 29 30 35 46 54 56 60 66 75 79 82 81 81 78 78 72 74 76 77 74 87
9 7 7 9 8 7 9 6 6 6 7 10 9 31 64 73 55 38 20 21 24 27 33 31 30 37 36 49 55 63 68 74 79 82 81 86 82 75 74 70 68 70 81 92
8 7 8 8 7 6 8 6 7 7 7 8 21 30 55 51 59 47 20 20 24 25 33 35 33 36 40 41 47 59 67 75 82 85 84 81 83 80 77 77 78 75 81 83
6 5 6 6 6 6 6 6 6 6 6 10 26 40 67 55 51 42 18 20 23 24 35 40 46 46 50 50 50 56 66 75 83 86 85 84 84 80 79 78 89 88 82 80
7 7 5 5 6 6 6 7 10 12 10 14 10 23 36 33 29 15 19 20 24 26 28 41 50 53 56 56 57 62 71 82 84 88 88 88 86 81 79 83 78 70 91 82
7 7 6 5 6 7 7 7 10 15 15 20 13 35 24 20 15 16 18 21 23 26 30 39 55 63 63 65 64 65 75 90 95 87 59 60 72 87 92 80 83 76 84 83
6 6 4 5 5 6 8 10 8 9 8 12 19 27 35 49 19 17 20 22 24 25 29 37 44 54 60 66 71 77 89 96 90 92 76 51 69 87 98 95 88 80 68 90
6 8 6 5 5 6 8 8 11 8 22 30 28 47 92 77 36 19 19 22 26 28 31 35 42 50 54 58 67 74 83 89 87 68 49 57 87 98 95 98 97 92 75 80
5 11 30 14 9 9 8 10 9 9 27 66 71 75 50 48 36 19 19 22 25 28 32 36 44 50 54 60 64 69 74 76 84 83 60 56 74 77 84 87 88 78 78 82
4 7 21 12 7 7 8 11 11 16 39 23 19 73 32 29 17 19 21 24 26 30 36 40 44 49 56 63 69 72 76 74 75 80 79 60 60 64 69 74 66 82 82 87
5 7 15 31 13 10 10 8 9 11 10 16 25 40 16 15 17 17 24 33 37 38 39 43 51 57 62 73 81 80 79 77 79 78 85 82 82 72 63 70 76 73 67 71
8 8 10 24 40 24 18 11 10 9 11 11 21 13 19 20 23 22 29 32 35 40 50 57 58 67 74 81 85 83 86 88 91 91 89 86 92 93 87 69 63 64 62 60
8 11 11 24 35 26 14 15 9 10 10 12 11 10 21 22 24 25 32 36 37 39 47 52 56 66 72 78 76 76 80 85 80 84 85 86 87 89 88 87 85 85 89 89
8 14 17 24 17 18 16 11 10 10 9 10 10 17 21 20 23 28 34 36 43 45 47 53 59 62 62 62 58 61 63 55 56 66 65 69 70 68 71 68 66 73 87 91
10 10 15 22 22 25 32 20 12 11 10 10 12 27 25 26 27 32 36 35 44 45 48 51 54 59 59 58 58 59 62 62 63 62 62 63 66 65 65 67 72 76 62 58
12 26 32 40 41 49 22 20 24 16 12 11 10 14 19 26 28 32 34 37 42 43 45 48 51 52 52 50 53 57 60 65 67 66 65 63 62 62 54 58 61 51 52 51
12 20 33 47 88 67 31 28 32 25 14 10 10 20 22 24 26 33 33 40 39 42 45 47 46 43 44 45 50 55 57 57 61 63 60 62 64 66 62 60 66 66 54 47
23 15 20 50 53 44 27 20 11 12 15 14 15 19 23 24 29 27 33 36 38 41 41 41 38 39 42 48 51 54 58 56 56 59 60 59 60 66 64 62 66 62 65 68
44 41 24 27 32 31 21 14 13 21 33 20 18 19 22 28 40 46 45 45 39 39 42 43 44 43 40 46 51 54 53 50 54 60 56 45 51 60 63 66 69 72 71 72
84 80 31 22 23 32 20 19 21 30 25 25 22 21 39 42 42 42 41 41 43 45 41 39 40 42 45 48 51 58 60 65 73 72 72 75 75 73 74 67 70 76 74 64
79 66 29 20 27 26 21 22 28 26 26 30 32 30 30 34 39 43 62 44 40 39 39 41 43 45 47 48 57 59 68 60 65 75 77 78 78 76 73 74 73 74 74 78
36 17 21 22 17 20 22 24 27 26 23 29 30 32 33 34 38 36 33 36 38 40 45 46 46 49 53 54 57 64 69 74 75 77 78 79 80 78 72 66 64 63 64 66
17 21 21 22 18 17 20 22 21 26 29 28 29 29 28 28 29 31 34 37 39 40 45 52 54 56 57 58 62 66 70 71 74 75 76 80 77 73 69 66 64 62 60 59
15 18 17 18 22 24 25 24 25 27 27 26 27 28 29 30 31 32 35 38 41 48 51 56 57 58 64 68 67 66 69 74 78 83 82 77 75 74 75 75 75 73 70 68
Wind_Speed
17 13 15 19 15 7 2 8 8 7 7 3 10 4 11 7 5 1 2 3 21 21 12 16 14 22 24 25 25 27 21 23 23 20 19 16 18 17 16 17 18 13 14 14
16 15 19 17 3 5 7 9 13 8 8 5 9 3 10 8 5 3 2 4 4 3 3 9 14 13 15 20 17 17 19 24 23 22 23 17 14 15 18 18 18 21 19 18
18 19 14 15 1 7 9 13 15 6 1 8 10 7 20 32 42 4 3 3 8 4 1 4 10 12 16 19 19 23 23 25 24 23 19 20 21 17 19 21 21 22 22 16
17 19 12 3 9 10 15 6 10 3 8 9 15 3 14 13 17 19 8 8 7 1 6 2 4 10 11 20 19 22 18 21 22 22 22 21 21 23 21 23 23 18 22 18
11 17 8 11 13 12 15 6 9 12 12 15 13 6 3 4 11 22 12 8 9 2 8 4 4 4 6 9 12 19 17 17 16 17 21 23 24 27 25 23 24 24 17 11
16 13 10 9 11 11 6 12 13 15 12 12 16 8 5 8 12 18 9 7 7 7 11 7 5 5 5 6 8 10 10 13 14 16 18 22 26 27 31 30 20 19 19 16
13 14 9 13 14 13 9 13 11 11 11 2 11 9 8 21 19 10 14 9 8 10 7 8 7 7 8 9 8 7 8 10 11 14 18 21 25 29 32 38 31 33 20 17
12 13 16 12 13 13 15 16 10 7 8 11 12 8 3 12 12 12 16 13 12 11 9 9 8 7 7 7 7 6 7 7 8 11 12 18 25 30 33 35 34 27 19 16
11 12 15 17 13 12 16 15 17 11 19 6 9 8 19 30 6 14 13 13 12 10 12 11 9 8 8 7 5 4 4 4 4 6 13 19 26 25 24 24 30 22 21 18
19 9 15 14 12 12 14 13 15 8 4 4 4 5 8 22 12 12 12 15 13 12 11 10 9 9 8 6 4 3 2 3 4 8 10 19 17 15 8 8 13 19 16 15
17 5 10 19 9 14 10 12 13 7 7 5 8 6 14 21 20 12 9 12 15 14 13 10 9 8 7 6 4 2 1 2 5 8 8 12 11 11 11 11 10 13 11 11
17 10 17 16 14 10 13 6 11 7 8 10 10 9 22 21 8 11 12 10 14 15 13 10 8 7 5 4 2 1 1 2 4 8 12 6 5 7 8 12 3 7 9 11
14 12 3 9 13 5 9 13 2 7 10 6 9 4 8 12 11 6 15 12 10 10 10 12 9 5 4 3 2 2 2 3 2 5 7 13 14 13 11 9 12 15 13 15
5 14 12 10 3 19 13 10 4 8 8 12 11 5 13 14 10 7 14 13 14 13 16 12 12 8 5 5 5 5 4 3 3 3 5 7 12 14 15 15 17 18 17 18
9 14 5 19 24 24 18 15 8 5 5 6 12 10 15 10 14 13 13 14 10 9 11 12 10 8 6 5 5 6 8 9 11 10 9 8 7 10 11 12 12 13 14 14
14 12 2 3 3 11 16 17 13 8 10 8 5 7 11 9 14 14 14 11 18 13 13 12 7 7 6 5 5 5 6 7 8 9 9 10 10 10 12 13 14 14 14 13
17 15 12 1 10 4 17 21 12 9 2 3 7 13 11 8 5 11 12 12 18 14 12 10 11 8 6 4 3 2 3 4 6 7 8 10 10 10 12 16 17 18 17 16
13 9 4 4 9 9 7 12 14 21 10 9 7 5 8 11 8 9 10 14 16 15 12 9 8 10 7 6 5 2 3 5 5 7 10 10 14 16 17 16 16 18 18 18
5 5 5 4 4 13 30 6 7 23 5 5 7 11 9 8 6 8 11 17 15 15 11 8 8 7 9 7 9 9 6 7 10 10 10 12 15 19 20 20 17 17 18 18
18 9 4 3 6 4 15 24 3 7 2 12 10 9 12 9 7 7 14 15 11 10 8 6 4 6 10 11 8 9 8 9 12 10 9 12 15 19 22 23 23 23 22 21
5 8 9 8 5 8 4 16 8 3 5 10 7 5 8 7 9 7 8 13 9 8 5 2 4 6 8 5 9 8 9 12 12 13 17 19 19 21 22 23 24 25 25 26
3 5 7 6 10 1 11 11 4 5 6 9 2 5 24 15 12 6 8 9 7 3 1 2 4 7 8 9 9 7 8 11 12 14 15 17 20 23 23 27 29 28 29 32
7 14 12 6 5 3 2 4 6 8 5 3 5 5 4 8 10 2 8 16 8 5 4 5 7 8 9 12 9 14 13 19 21 19 21 23 25 27 28 30 32 32 29 29
25 3 1 6 5 9 10 6 3 5 6 5 5 2 2 6 10 1 5 12 11 8 7 9 12 11 12 13 13 13 14 13 16 20 24 26 26 28 27 26 27 27 28 28
6 2 1 2 10 10 4 5 4 3 3 2 6 5 4 3 6 7 8 8 7 8 9 8 10 13 15 15 15 15 18 21 24 26 27 26 27 27 27 27 28 28 29 28
11 9 6 5 10 7 7 4 1 1 2 2 3 5 1 1 4 5 5 8 8 6 10 12 14 14 14 16 21 24 24 23 24 25 24 26 28 28 25 26 28 26 25 26
Wind_Direction
210 226 230 238 229 106 292 327 315 264 116 274 293 307 122 92 116 90 272 209 150 194 201 202 209 200 192 197 192 189 186 215 225 210 227 244 217 230 237 246 254 260 239 258
222 222 239 248 91 320 263 243 262 236 148 196 252 330 79 97 73 83 87 229 117 121 223 193 220 221 214 196 216 194 196 222 233 212 219 232 243 234 243 246 245 251 256 231
234 210 234 254 171 227 242 255 265 352 138 222 244 85 37 354 343 314 115 237 109 117 328 228 227 248 215 200 203 220 209 220 238 227 218 228 226 234 242 240 241 252 262 238
224 258 193 239 241 245 250 268 355 302 261 270 265 145 46 358 307 322 166 44 107 164 110 338 321 211 234 215 205 212 216 222 236 246 231 236 236 232 234 249 252 248 246 241
206 248 175 242 249 225 265 352 309 296 274 261 81 77 279 299 323 287 291 137 101 351 94 50 13 349 184 212 205 202 215 228 237 241 247 245 247 240 233 240 230 238 243 237
265 207 264 235 242 254 306 285 278 249 241 257 141 131 216 224 203 254 128 131 123 101 101 74 65 99 139 158 180 192 207 223 239 250 259 259 254 250 247 235 235 234 228 226
225 262 216 260 238 234 238 250 258 240 226 312 314 157 202 224 225 157 147 139 122 105 106 87 89 110 135 152 169 191 224 240 237 248 260 265 269 263 252 241 229 259 227 225
207 216 235 197 240 255 226 246 266 285 291 222 243 75 185 207 152 119 124 136 128 117 111 103 107 114 136 156 172 182 212 224 236 252 282 299 293 269 262 247 238 226 234 271
210 214 208 200 212 219 250 251 266 270 257 227 45 30 21 343 190 135 130 126 115 115 117 117 117 118 126 136 156 188 215 227 272 320 295 309 310 284 258 237 233 248 222 246
277 284 154 191 217 240 267 283 296 268 3 61 29 67 137 265 259 151 148 131 124 132 117 112 111 116 121 128 134 157 211 264 283 295 347 355 21 38 97 179 221 222 219 241
256 278 330 304 197 236 209 242 259 311 127 101 350 307 210 208 233 137 133 152 140 134 123 118 117 121 123 127 130 137 50 285 307 314 332 16 44 55 61 75 133 203 222 267
239 270 178 243 219 222 277 353 303 284 38 222 227 224 249 213 169 128 164 101 105 112 118 121 122 121 119 115 102 86 48 343 300 276 314 328 48 100 83 105 114 258 263 265
227 255 227 347 317 201 254 273 211 215 254 281 54 45 138 133 112 148 128 118 110 114 137 146 120 106 105 91 68 36 355 339 309 299 304 308 318 306 298 283 280 278 269 262
272 266 274 155 242 303 303 317 324 314 317 349 133 248 151 131 136 148 125 149 143 138 98 106 108 109 99 86 68 53 33 359 307 294 291 291 303 312 312 297 289 287 284 282
236 247 281 141 178 224 273 271 280 253 308 308 331 334 123 135 144 155 146 124 134 132 135 128 122 119 123 108 86 65 51 33 26 28 13 341 322 313 318 320 319 314 300 301
223 241 138 77 145 313 227 248 250 271 263 257 278 75 76 109 131 146 146 148 128 130 132 118 123 143 134 120 99 79 55 39 30 22 9 6 2 355 346 341 335 329 324 311
226 231 237 118 168 28 305 324 290 282 71 0 304 103 118 104 112 144 154 164 138 139 143 149 164 161 164 169 145 75 44 22 6 354 349 342 341 341 335 331 332 333 326 316
234 95 50 43 22 292 310 34 338 297 314 283 284 125 109 126 146 166 168 151 145 153 149 166 186 165 196 198 162 241 262 289 298 305 305 319 320 319 325 325 325 321 319 322
141 84 113 123 106 306 284 324 209 261 345 307 235 106 109 109 169 154 196 162 161 150 161 183 194 201 208 229 254 240 255 276 276 289 300 298 304 306 312 317 314 312 317 318
347 132 200 128 141 223 264 249 102 45 291 345 134 128 138 143 229 241 187 127 147 154 169 180 211 239 258 241 274 232 262 284 290 284 280 287 294 296 303 304 304 307 308 307
10 335 222 189 191 212 202 308 85 253 57 32 65 109 167 128 100 129 148 158 161 154 135 195 246 280 302 275 290 292 306 302 292 283 284 294 298 299 303 306 304 302 301 300
18 3 261 235 272 167 353 353 335 81 90 37 25 26 113 122 119 159 170 143 125 109 121 343 309 300 304 314 309 278 291 295 284 282 287 287 286 288 292 290 291 293 292 295
180 197 253 348 19 161 131 49 34 20 62 100 29 33 357 111 120 132 7 82 72 62 357 320 325 320 309 307 282 278 286 293 293 298 295 296 296 296 298 299 299 299 298 293
217 170 288 327 16 26 48 62 51 336 324 107 153 150 83 107 103 358 41 53 38 9 347 333 324 313 313 309 306 310 306 293 292 291 295 299 300 297 297 298 298 295 292 291
359 99 243 276 268 275 248 249 317 104 8 96 90 87 74 55 45 43 34 17 352 330 317 305 311 312 306 307 308 304 300 300 297 296 295 297 300 302 299 296 294 292 288 286
304 313 259 248 64 2 56 38 204 279 210 258 163 158 198 34 335 348 343 347 339 327 308 305 307 305 306 304 304 303 301 300 298 293 296 298 298 299 298 299 300 293 292 291